Starlink 31164

operational
NORAD ID: 58733 Int'l Des: 2024-005 Owner: SPXS Country: US Constellation: starlink
LEOCIRCULAR

Über Starlink 31164

Beschreibung wird geladen...

Live-Position

3D-Globus wird geladen...

Nächste Überflüge

Höhenverlauf

Altitude vs Time

uPlot chart will show altitude changes over time

Zweizeiliger Elementsatz

1 58733U 24005F 25303.77192880 .00003411 00000-0 26753-3 0 9997
2 58733 43.0019 207.9823 0001377 271.4027 88.6657 15.02530599100861
Epoch: 30. Okt. 2025 • Age: 13 hours

Aktueller Status

Höhe 561.3 km
Geschwindigkeit 7.59 km/s
Subsatellitenpunkt 34.40°N, 179.42°W
Startdatum 7. Jan. 2024
Alter 1.8 years
Typ internet

Technische Details

Klassifizierung Payload
Masse 730.00 kg
Trockenmasse 700.00 kg
Gesamtmasse 730.00 kg
Länge 0.30 m
Durchmesser 4.10 m
Spannweite 29.00 m
Form Box + pan
Hersteller SPXS
Bus-Typ Starlink V2M
Phasenstatus In Orbit
Besitzer/Staat SPXS/US

Große Konstellationen

Loading constellations...